Regional Weather Roundup
Issued by NWS State College, PA

Home | Current Version | Previous Version | Graphics & Text | Print | Product List | Glossary Off
Versions: 1 2 3 4 5 6 7 8 9 10 11 12 13 14 15 16 17 18 19 20 21 22 23 24 25 26 27 28 29 30 31 32 33 34 35 36 37 38 39 40 41 42 43 44 45 46 47 48 49 50

000
ASUS41 KCTP 311603
RWRCTP

REGIONAL WEATHER ROUNDUP
NATIONAL WEATHER SERVICE STATE COLLEGE PA
1200 PM EDT MON AUG 31 2015

Note: "fair" indicates few or no clouds below 12,000 feet with no
significant weather and/or obstructions to visibility.

* = STATION THAT DOES NOT REPORT PRECIPITATION /E.G. RAIN...SNOW...ETC/
    THUNDER OR FOG.

PAZ002>004-007>009-013>016-020>023-029>032-311700-
WESTERN PENNSYLVANIA

CITY           SKY/WX    TMP DP  RH WIND       PRES   REMARKS
ERIE           MOSUNNY   77  67  71 W14       30.10S
MEADVILLE      SUNNY     80  67  64 W8        30.13S
FRANKLIN*      MOSUNNY   79  68  69 SW5       30.15S
NEW CASTLE     FAIR      83  72  69 CALM      30.13S
BEAVER COUNTY  SUNNY     81  68  65 SW5       30.14S
BUTLER*        SUNNY     82  70  65 W6        30.15F
PITTSBURGH INT PTSUNNY   82  66  58 W7        30.14S
PITTSBURGH     SUNNY     79  60  52 VRB5      30.14S
INDIANA*       MOSUNNY   79  68  69 VRB5G12   30.18S
LATROBE        MOSUNNY   81  68  65 W7        30.15S
WASHINGTON CO* NOT AVBL
$$

PAZ004>006-010>012-017>019-024>028-033>037-041-042-045-046-049>053-311700-
CENTRAL PENNSYLVANIA

CITY           SKY/WX    TMP DP  RH WIND       PRES   REMARKS
BRADFORD       PTSUNNY   77  63  61 NW12      30.14F
DUBOIS         PTSUNNY   78  67  68 SW9       30.14F
CLEARFIELD     NOT AVBL
JOHNSTOWN      PTSUNNY   75  64  68 W5        30.18S
ALTOONA        PTSUNNY   83  64  52 CALM      30.14F
STATE COLLEGE  MOSUNNY   79  68  69 NW5       30.13R
WILLIAMSPORT   PTSUNNY   79  67  66 W9        30.07F
SELINSGROVE    PTSUNNY   83  69  62 CALM      30.09S
FT INDIANTOWN  PTSUNNY   85  69  58 VRB3      30.09R
CAPITAL CITY   PTSUNNY   83  67  58 W8        30.09S
HARRISBURG     PTSUNNY   83  70  64 CALM      30.08S
YORK           PTSUNNY   80  70  71 SW3       30.10S
$$

PAZ038>040-043-044-047-048-054-055-060>062-067>071-311700-
EASTERN PENNSYLVANIA

CITY           SKY/WX    TMP DP  RH WIND       PRES   REMARKS
SCRANTON       MOSUNNY   81  68  64 VRB5      30.08S
MOUNT POCONO   PTSUNNY   79  66  64 NW12      30.13S
ALLENTOWN      PTSUNNY   84  69  60 SW9       30.07S
QUAKERTOWN*    PTSUNNY   82  72  69 SW6       30.09S
READING        PTSUNNY   83  68  60 SW7       30.07F
LANCASTER      PTSUNNY   82  69  64 NW8       30.09S
COATESVILLE    PTSUNNY   82  68  61 W8        30.11S
POTTSTOWN      PTSUNNY   81  70  69 MISG      30.10R
BLUE BELL      PTSUNNY   84  70  61 W3        30.07F
DOYLESTOWN     PTSUNNY   80  68  66 W6        30.08R
WILLOW GROVE   NOT AVBL
NORTH PHILA    MOSUNNY   88  65  46 W5        30.07F
PHILADELPHIA   PTSUNNY   87  67  51 SW6       30.07S
$$


USA.gov is the U.S. government's official web portal to all federal, state and local government web resources and services.